Weather History for Roseburg, OR

Change the Weather History Date:

Wednesday, October 17, 2012

  Actual Average Record
Temperature  
Mean Temperature 52 °F 55 °F  
Max Temperature 62 °F 66 °F 88 °F (1936)
Min Temperature 41 °F 44 °F 27 °F (1971)
Degree Days  
Heating Degree Days 13 10  
Month to date heating degree days 95 126  
Since 1 July heating degree days 121 215  
Cooling Degree Days 0 0  
Month to date cooling degree days 3 2  
Year to date cooling degree days 496 478  
Growing Degree Days 2 (Base 50)    
Moisture  
Dew Point 42 °F    
Average Humidity 74    
Maximum Humidity 100    
Minimum Humidity 48    
Precipitation  
Precipitation 0.00 in 0.08 in 0.70 in (1953)
Month to date precipitation 0.99 1.06  
Year to date precipitation 24.33 21.67  
Sea Level Pressure  
Sea Level Pressure 30.23 in    
Wind  
Wind Speed 1 mph (North)    
Max Wind Speed 8 mph    
Max Gust Speed 25 mph    
Visibility 7 miles    
Events Fog    
T = Trace of Precipitation, MM = Missing Value Source: NWS Daily Summary

Daily Weather History Graph

Daily Weather History Graph

Search for Another Location

Airport:

Trip Planner

Search our weather history database for the weather conditions in past years. The results will help you decide how hot, cold, wet, or windy it might be!

Date:

Astronomy

Oct. 17, 2012 Rise Set
Actual Time 7:30 AM PDT 6:26 PM PDT
Civil Twilight 7:01 AM PDT 6:55 PM PDT
Nautical Twilight 6:28 AM PDT 7:28 PM PDT
Astronomical Twilight 5:55 AM PDT 8:00 PM PDT
Moon 10:16 AM PDT (10/17) 8:01 PM PDT (10/17)
Length of Visible Light 11h 53m
Length of Day
10h 55m
Waxing Crescent, 8% of the Moon is Illuminated
Oct 17
Waxing Crescent
Oct 21
First Quarter
Oct 29
Full
Nov 6
Last Quarter
Nov 13
New

Hourly Weather History & Observations

Time (PDT) Temp. Windchill Dew Point Humidity Pressure Visibility Wind Dir Wind Speed Gust Speed Precip Events Conditions
12:53 AM 45.0 °F - 42.1 °F 90% 30.29 in 10.0 mi Calm Calm - N/A   Clear
1:53 AM 44.1 °F - 41.0 °F 89% 30.30 in 10.0 mi Calm Calm - N/A   Clear
2:53 AM 44.1 °F 42.5 °F 41.0 °F 89% 30.29 in 10.0 mi North 3.5 mph - N/A   Clear
3:53 AM 42.1 °F - 39.9 °F 92% 30.28 in 10.0 mi Calm Calm - N/A   Clear
4:53 AM 42.1 °F - 39.0 °F 89% 30.25 in 10.0 mi Calm Calm - N/A   Partly Cloudy
5:01 AM 41.0 °F - 39.2 °F 93% 30.25 in 2.5 mi Calm Calm - N/A   Mostly Cloudy
5:04 AM 41.0 °F - 39.2 °F 93% 30.25 in 0.8 mi Calm Calm - N/A   Mostly Cloudy
5:29 AM 41.0 °F - 39.2 °F 93% 30.25 in 0.2 mi Calm Calm - N/A Fog Fog
5:53 AM 41.0 °F - 41.0 °F 100% 30.26 in 0.2 mi Calm Calm - N/A Fog Fog
6:21 AM 42.8 °F - 41.0 °F 93% 30.24 in 0.5 mi Calm Calm - N/A Fog Fog
6:53 AM 42.1 °F 40.2 °F 41.0 °F 96% 30.27 in 0.2 mi NNE 3.5 mph - N/A Fog Fog
7:21 AM 41.0 °F 38.0 °F 39.2 °F 93% 30.26 in 0.8 mi NNE 4.6 mph - N/A   Mist
7:25 AM 41.0 °F 39.0 °F 39.2 °F 93% 30.25 in 2.0 mi NNE 3.5 mph - N/A   Overcast
7:32 AM 42.8 °F - 41.0 °F 93% 30.25 in 10.0 mi Calm Calm - N/A   Overcast
7:53 AM 42.1 °F - 41.0 °F 96% 30.26 in 9.0 mi Calm Calm - N/A   Overcast
8:38 AM 42.8 °F - 42.8 °F 100% 30.25 in 1.8 mi Calm Calm - N/A   Overcast
8:53 AM 43.0 °F - 42.1 °F 97% 30.26 in 5.0 mi Calm Calm - N/A   Overcast
9:44 AM 42.8 °F 39.3 °F 42.8 °F 100% 30.27 in 2.5 mi NNE 5.8 mph - N/A   Overcast
9:53 AM 44.1 °F 41.5 °F 42.1 °F 93% 30.28 in 4.0 mi North 4.6 mph - N/A   Overcast
10:44 AM 46.4 °F - 42.8 °F 87% 30.26 in 10.0 mi Calm Calm - N/A   Overcast
10:53 AM 46.0 °F - 43.0 °F 89% 30.27 in 10.0 mi Calm Calm - N/A   Overcast
11:53 AM 50.0 °F - 43.0 °F 77% 30.25 in 10.0 mi Calm Calm - N/A   Overcast
12:43 PM 53.6 °F - 42.8 °F 67% 30.23 in 10.0 mi North - - N/A   Scattered Clouds
12:53 PM 53.1 °F - 42.1 °F 66% 30.23 in 10.0 mi Calm Calm - N/A   Clear
1:53 PM 55.9 °F - 44.1 °F 64% 30.21 in 10.0 mi North 5.8 mph - N/A   Clear
2:53 PM 57.9 °F - 42.1 °F 56% 30.18 in 10.0 mi Calm Calm - N/A   Clear
3:53 PM 61.0 °F - 43.0 °F 52% 30.16 in 10.0 mi Variable 3.5 mph - N/A   Clear
4:53 PM 62.1 °F - 43.0 °F 50% 30.15 in 10.0 mi North 3.5 mph - N/A   Clear
5:53 PM 61.0 °F - 45.0 °F 56% 30.15 in 10.0 mi NNW 3.5 mph - N/A   Clear
6:53 PM 55.9 °F - 46.0 °F 69% 30.16 in 10.0 mi Calm Calm - N/A   Clear
7:53 PM 52.0 °F - 46.0 °F 80% 30.17 in 10.0 mi Calm Calm - N/A   Clear
8:53 PM 51.1 °F - 45.0 °F 80% 30.17 in 10.0 mi Calm Calm - N/A   Clear
9:53 PM 48.0 °F - 44.1 °F 86% 30.19 in 10.0 mi Calm Calm - N/A   Clear
10:53 PM 46.9 °F - 44.1 °F 90% 30.19 in 10.0 mi Calm Calm - N/A   Clear
11:53 PM 46.9 °F - 43.0 °F 86% 30.19 in 10.0 mi NNE 3.5 mph - N/A   Clear